Tracking 22440 objects as of 27-Feb-2021
HD Live streaming from Space Station
objects crossing your sky now

GSAT 1

Track GSAT 1 now!
GSAT 1 is classified as:


NORAD ID: 26745
Int'l Code: 2001-015A
Perigee: 33,852.7 km
Apogee: 35,801.6 km
Inclination: 12.1 °
Period: 1,387.0 minutes
Semi major axis: 41198 km
RCS: 3.1622 m2 (large)
Launch date: April 18, 2001
Source: India (IND)
Launch site: SRIHARIKOTA (SRI)
aabbcc
Your satellite tracking list
Your tracking list is empty




NASA's NSSDC Master Catalog

Two Line Element Set (TLE):
1 26745U 01015A   21057.59206068 -.00000064  00000-0  00000-0 0  9993
2 26745  12.0648  18.5202 0236530 245.2574 112.8149  1.03821428 75415
Source of the keplerian elements: AFSPC